OpenBCM V1.13 (Linux)

Packet Radio Mailbox

DB0FHN

[JN59NK Nuernberg]

 Login: GUEST





  
UA9FBV > KEPS     11.12.04 08:16l 277 Lines 7266 Bytes #999 (0) @ AMSAT
BID : ORB04345.D
Read: GUEST
Subj: Orbital Elements  04345.MICROS
Path: DB0FHN<DB0FOR<DB0SIF<DB0EA<DB0RES<ER3KAZ<UA9FBV
Sent: 041211/0608Z @:UA9FBV.PRM.RUS.AS #:12665 [Perm] GATEWAY $:ORB04345.D
From: UA9FBV@UA9FBV.PRM.RUS.AS
To  : KEPS@AMSAT


HR AMSAT ORBITAL ELEMENTS FOR THE MICROSATS
FROM WA5QGD FORT WORTH,TX December 10, 2004
SEND SUBSCRIBE/UNSUBSCRIBE TO majordomo@amsat.org ONLY
BID: ORB04345.D
TO ALL RADIO AMATEURS BT

Satellite: UO-14
Catalog number: 20437
Epoch time:      04344.61932009
Element set:     658
Inclination:       98.2010 deg
RA of node:       358.9006 deg
Eccentricity:    0.0011604
Arg of perigee:    41.8899 deg
Mean anomaly:     318.3157 deg
Mean motion:   14.31387444 rev/day
Decay rate:       1.20e-06 rev/day^2
Epoch rev:           77691
Checksum:              297

Satellite: AO-16
Catalog number: 20439
Epoch time:      04344.65859110
Element set:     347
Inclination:       98.2267 deg
RA of node:        13.8698 deg
Eccentricity:    0.0011991
Arg of perigee:    48.7336 deg
Mean anomaly:     311.4875 deg
Mean motion:   14.31647047 rev/day
Decay rate:        2.5e-07 rev/day^2
Epoch rev:           77697
Checksum:              330

Satellite: WO-18
Catalog number: 20441
Epoch time:      04345.86116590
Element set:     538
Inclination:       98.2402 deg
RA of node:        19.1803 deg
Eccentricity:    0.0012534
Arg of perigee:    46.5090 deg
Mean anomaly:     313.7121 deg
Mean motion:   14.31722410 rev/day
Decay rate:        6.5e-07 rev/day^2
Epoch rev:           77720
Checksum:              262

Satellite: LO-19
Catalog number: 20442
Epoch time:      04345.13311876
Element set:     273
Inclination:       98.2489 deg
RA of node:        22.6972 deg
Eccentricity:    0.0012908
Arg of perigee:    46.4395 deg
Mean anomaly:     313.7864 deg
Mean motion:   14.31894192 rev/day
Decay rate:        5.1e-07 rev/day^2
Epoch rev:           77716
Checksum:              318

Satellite: UO-22
Catalog number: 21575
Epoch time:      04345.55160775
Element set:     275
Inclination:       98.2184 deg
RA of node:       312.2833 deg
Eccentricity:    0.0006485
Arg of perigee:   302.4852 deg
Mean anomaly:      57.5700 deg
Mean motion:   14.39443522 rev/day
Decay rate:        2.3e-07 rev/day^2
Epoch rev:           70336
Checksum:              287

Satellite: KO-23
Catalog number: 22077
Epoch time:      04345.84952473
Element set:     335
Inclination:       66.0875 deg
RA of node:       180.8772 deg
Eccentricity:    0.0012784
Arg of perigee:   300.4068 deg
Mean anomaly:      59.5684 deg
Mean motion:   12.86427932 rev/day
Decay rate:       -3.7e-07 rev/day^2
Epoch rev:           57936
Checksum:              333

Satellite: AO-27
Catalog number: 22825
Epoch time:      04345.08945370
Element set:       9
Inclination:       98.2458 deg
RA of node:       344.6886 deg
Eccentricity:    0.0009547
Arg of perigee:   101.9373 deg
Mean anomaly:     258.2881 deg
Mean motion:   14.29102213 rev/day
Decay rate:       -2.0e-08 rev/day^2
Epoch rev:           58421
Checksum:              307

Satellite: IO-26
Catalog number: 22826
Epoch time:      04345.57275025
Element set:     678
Inclination:       98.2413 deg
RA of node:       346.4349 deg
Eccentricity:    0.0009872
Arg of perigee:    97.4694 deg
Mean anomaly:     262.7610 deg
Mean motion:   14.29340951 rev/day
Decay rate:        5.6e-07 rev/day^2
Epoch rev:           58434
Checksum:              331

Satellite: KO-25
Catalog number: 22828
Epoch time:      04344.63170616
Element set:    0942
Inclination:      098.2355 deg
RA of node:       345.7712 deg
Eccentricity:    0.0011032
Arg of perigee:   081.5417 deg
Mean anomaly:     278.7013 deg
Mean motion:   14.29658384 rev/day
Decay rate:       1.07e-06 rev/day^2
Epoch rev:           55243
Checksum:              298

Satellite: TO-31
Catalog number: 25396
Epoch time:      04345.42355494
Element set:     123
Inclination:       98.5565 deg
RA of node:        52.1193 deg
Eccentricity:    0.0002763
Arg of perigee:    32.1259 deg
Mean anomaly:     328.0090 deg
Mean motion:   14.23648297 rev/day
Decay rate:       -4.3e-07 rev/day^2
Epoch rev:           33355
Checksum:              292

Satellite: GO-32
Catalog number: 25397
Epoch time:      04345.14856237
Element set:     621
Inclination:       98.5485 deg
RA of node:        49.7222 deg
Eccentricity:    0.0001619
Arg of perigee:    60.5228 deg
Mean anomaly:     299.6134 deg
Mean motion:   14.23063033 rev/day
Decay rate:        9.8e-07 rev/day^2
Epoch rev:           33344
Checksum:              301

Satellite: UO-36
Catalog number: 25693
Epoch time:      04345.82375566
Element set:     721
Inclination:       64.5560 deg
RA of node:       142.1570 deg
Eccentricity:    0.0041766
Arg of perigee:   235.9520 deg
Mean anomaly:     123.7621 deg
Mean motion:   14.78433460 rev/day
Decay rate:        5.2e-07 rev/day^2
Epoch rev:           30397
Checksum:              300

Satellite: SO-41
Catalog number: 26545
Epoch time:      04345.86280039
Element set:     948
Inclination:       64.5559 deg
RA of node:       157.7089 deg
Eccentricity:    0.0029374
Arg of perigee:   337.7891 deg
Mean anomaly:      22.1878 deg
Mean motion:   14.79957112 rev/day
Decay rate:       3.63e-06 rev/day^2
Epoch rev:           22705
Checksum:              346

Satellite: MO-46
Catalog number: 26548
Epoch time:      04345.39542819
Element set:      50
Inclination:       64.5543 deg
RA of node:       144.1091 deg
Eccentricity:    0.0028880
Arg of perigee:   325.1343 deg
Mean anomaly:      34.7884 deg
Mean motion:   14.82540112 rev/day
Decay rate:       6.17e-06 rev/day^2
Epoch rev:           22729
Checksum:              299

Satellite: SO-42
Catalog number: 26549
Epoch time:      04344.62843854
Element set:       6
Inclination:       64.5551 deg
RA of node:       169.1036 deg
Eccentricity:    0.0029578
Arg of perigee:   347.8884 deg
Mean anomaly:      12.1503 deg
Mean motion:   14.78842774 rev/day
Decay rate:       2.09e-06 rev/day^2
Epoch rev:           22672
Checksum:              322

Satellite: NO-44
Catalog number: 26931
Epoch time:      04345.11498125
Element set:     918
Inclination:       67.0545 deg
RA of node:       354.7406 deg
Eccentricity:    0.0007340
Arg of perigee:   268.4596 deg
Mean anomaly:      91.5635 deg
Mean motion:   14.29346736 rev/day
Decay rate:       1.02e-06 rev/day^2
Epoch rev:           16674
Checksum:              315

Satellite: AO-49
Catalog number: 27605
Epoch time:      04345.33229493
Element set:     606
Inclination:       64.5602 deg
RA of node:       349.5102 deg
Eccentricity:    0.0085417
Arg of perigee:   276.9557 deg
Mean anomaly:      82.1820 deg
Mean motion:   14.71996860 rev/day
Decay rate:       3.00e-06 rev/day^2
Epoch rev:           10605
Checksum:              306

Satellite: SO-50
Catalog number: 27607
Epoch time:      04344.55147500
Element set:     588
Inclination:       64.5599 deg
RA of node:       356.4733 deg
Eccentricity:    0.0086409
Arg of perigee:   276.0060 deg
Mean anomaly:      83.1199 deg
Mean motion:   14.70822108 rev/day
Decay rate:       4.27e-06 rev/day^2
Epoch rev:           10584
Checksum:              312

Satellite: AO-51
Catalog number: 28375
Epoch time:      04345.18716836
Element set:     129
Inclination:       98.2417 deg
RA of node:        48.9836 deg
Eccentricity:    0.0085249
Arg of perigee:    81.7612 deg
Mean anomaly:     279.3225 deg
Mean motion:   14.40417945 rev/day
Decay rate:        5.5e-07 rev/day^2
Epoch rev:            2340
Checksum:              320



Read previous mail | Read next mail


 13.09.2026 21:16:10lGo back Go up